Tracking 19831 objects as of 23-Aug-2019
HD Live streaming from Space Station
objects crossing your sky now

METEOR 2-5 DEB

Track METEOR 2-5 DEB now!
10-day predictions


NORAD ID: 36903
Int'l Code: 1979-095AU
Perigee: 609.8 km
Apogee: 624.1 km
Inclination: 81.2 °
Period: 96.9 minutes
Semi major axis: 6987 km
RCS: 0.007 m2 (small)
Launch date: October 31, 1979
Source: Commonwealth of Independent States (former USSR) (CIS)
Launch site: PLESETSK MISSILE AND SPACE COMPLEX (PKMTR)

Note: This is SATELLITE DEBRIS
aabbcc
Your satellite tracking list
Your tracking list is empty




NASA's NSSDC Master Catalog

Two Line Element Set (TLE):
1 36903U 79095AU  19234.80009918  .00003302  00000-0  37359-3 0  9993
2 36903  81.1789  11.2057 0010224  74.5863 285.6478 14.86212246747054
Source of the keplerian elements: AFSPC